Simultaneous Nadir Overpasses (SNOs) Predictions

Prediction of SNOs between LANDSAT-8 and NOAA-19 Satellite Orbit:

Table of predicted SNOs for the next 14.0 days since TLE Epoch: 10/2/2021
Index Date (LANDSAT-8) Time (LANDSAT-8) Lat,Lon (LANDSAT-8) SZA (LANDSAT-8 ) Date (NOAA-19) Time (NOAA-19) Lat,Lon (NOAA-19) SZA (NOAA-19 ) Distance(km) Time Diff (sec)
1 10/02/2021 04:14:22 80.55, 149.22 85.90 10/02/2021 04:14:11 80.54, 149.20 85.89 1.59 11
2 10/02/2021 05:03:50 -80.51, -43.53 94.15 10/02/2021 05:04:59 -80.43, -41.23 93.97 43.38 69
3 10/04/2021 09:48:07 -80.56,-114.17 93.22 10/04/2021 09:47:12 -80.54,-114.05 93.24 2.77 55
4 10/04/2021 10:37:34 80.53, 53.23 86.76 10/04/2021 10:38:17 80.53, 53.40 86.79 3.18 43
5 10/06/2021 16:11:19 -80.54, 149.83 92.37 10/06/2021 16:11:19 -80.55, 149.75 92.37 2.19 0
6 10/08/2021 21:45:03 80.55,-113.50 88.51 10/08/2021 21:44:31 80.56,-113.60 88.50 2.13 32
7 10/08/2021 22:34:29 -80.54, 54.13 91.48 10/08/2021 22:35:23 -80.53, 54.24 91.46 2.44 54
8 10/11/2021 03:18:47 -80.55, -16.92 90.63 10/11/2021 03:17:38 -80.66, -19.38 90.80 46.33 69
9 10/11/2021 04:08:13 80.55, 150.75 89.39 10/11/2021 04:08:35 80.54, 150.84 89.40 1.95 22
10 10/13/2021 09:41:58 -80.55,-112.68 89.77 10/13/2021 09:41:37 -80.56,-112.80 89.78 2.60 21
11 10/15/2021 15:15:42 80.55, -16.14 91.07 10/15/2021 15:14:48 80.56, -16.02 91.07 2.66 54



Historial Predications of SNOs between LANDSAT-8 and NOAA-19
